When you browse on this site, cookies collect data to enhance your experience and personalize the content and advertising you see.
Visit our Privacy Policy to learn more. By continuing to use the site, you agree to this use of cookies and data.
  • In Hungary
  • List of Countries
  • For 7 days
  • Water Temperature
  • Satellite Maps
  • Weather Map
  • News
  • Weather Widgets
  • user-avatar
    Login

    Hourly Weather Nadzhran

    Today, 19 December, Wednesday

    Time Temperature Precipitation Wind Pressure Humidity
    00:00 +14°C° 0 mm 1 mps 635 mmHg 47%
    01:00 +13°C° 0 mm 1 mps 635 mmHg 49%
    02:00 +13°C° 0 mm 1 mps 635 mmHg 51%
    03:00 +11°C° 0 mm 0 mps 634 mmHg 53%
    04:00 +11°C° 0 mm 0 mps 634 mmHg 55%
    05:00 +10°C° 0 mm 0 mps 634 mmHg 57%
    06:00 +10°C° 0 mm 0 mps 634 mmHg 58%
    07:00 +12°C° 0 mm 1 mps 635 mmHg 53%
    08:00 +14°C° 0 mm 1 mps 636 mmHg 47%
    09:00 +15°C° 0 mm 1 mps 637 mmHg 41%
    10:00 +17°C° 0 mm 2 mps 637 mmHg 36%
    11:00 +19°C° 0 mm 2 mps 637 mmHg 31%
    12:00 +20°C° 0 mm 2 mps 637 mmHg 25%
    13:00 +21°C° 0 mm 2 mps 637 mmHg 23%
    14:00 +22°C° 0 mm 3 mps 637 mmHg 21%
    15:00 +24°C° 0 mm 3 mps 637 mmHg 19%
    16:00 +22°C° 0 mm 3 mps 636 mmHg 21%
    17:00 +21°C° 0 mm 3 mps 636 mmHg 23%
    18:00 +19°C° 0 mm 3 mps 636 mmHg 26%
    19:00 +18°C° 0 mm 3 mps 636 mmHg 29%
    20:00 +17°C° 0 mm 2 mps 636 mmHg 32%
    21:00 +16°C° 0 mm 1 mps 636 mmHg 35%
    22:00 +15°C° 0 mm 1 mps 636 mmHg 38%
    23:00 +15°C° 0 mm 1 mps 635 mmHg 40%

    Tomorrow, 20 December, Thursday

    Time Temperature Precipitation Wind Pressure Humidity
    00:00 +13°C° 0 mm 0 mps 635 mmHg 43%
    01:00 +12°C° 0 mm 0 mps 635 mmHg 45%
    02:00 +12°C° 0 mm 0 mps 634 mmHg 47%
    03:00 +11°C° 0 mm 0 mps 634 mmHg 49%
    04:00 +11°C° 0 mm 0 mps 634 mmHg 50%
    05:00 +10°C° 0 mm 0 mps 634 mmHg 52%
    06:00 +10°C° 0 mm 0 mps 634 mmHg 54%
    07:00 +13°C° 0 mm 1 mps 635 mmHg 48%
    08:00 +14°C° 0 mm 1 mps 636 mmHg 43%
    09:00 +16°C° 0 mm 1 mps 637 mmHg 37%
    10:00 +19°C° 0 mm 1 mps 637 mmHg 33%
    11:00 +21°C° 0 mm 1 mps 637 mmHg 29%
    12:00 +22°C° 0 mm 1 mps 637 mmHg 24%
    13:00 +23°C° 0 mm 2 mps 637 mmHg 22%
    14:00 +24°C° 0 mm 2 mps 636 mmHg 20%
    15:00 +25°C° 0 mm 3 mps 636 mmHg 17%
    16:00 +24°C° 0 mm 3 mps 636 mmHg 20%
    17:00 +22°C° 0 mm 3 mps 636 mmHg 22%
    18:00 +20°C° 0 mm 3 mps 635 mmHg 24%
    19:00 +19°C° 0 mm 2 mps 635 mmHg 27%
    20:00 +18°C° 0 mm 2 mps 636 mmHg 30%
    21:00 +18°C° 0 mm 1 mps 636 mmHg 33%
    22:00 +16°C° 0 mm 1 mps 635 mmHg 35%
    23:00 +15°C° 0 mm 1 mps 635 mmHg 38%

    Day after tomorrow, 21 December, Friday

    Time Temperature Precipitation Wind Pressure Humidity
    00:00 +14°C° 0 mm 1 mps 635 mmHg 40%
    01:00 +13°C° 0 mm 0 mps 634 mmHg 41%
    02:00 +12°C° 0 mm 0 mps 634 mmHg 43%
    03:00 +12°C° 0 mm 0 mps 633 mmHg 45%
    04:00 +11°C° 0 mm 0 mps 633 mmHg 46%
    05:00 +11°C° 0 mm 0 mps 633 mmHg 47%
    06:00 +10°C° 0 mm 0 mps 633 mmHg 48%
    07:00 +12°C° 0 mm 0 mps 634 mmHg 42%
    08:00 +14°C° 0 mm 0 mps 635 mmHg 37%
    09:00 +18°C° 0 mm 1 mps 636 mmHg 32%
    10:00 +20°C° 0 mm 1 mps 636 mmHg 29%
    11:00 +20°C° 0 mm 2 mps 636 mmHg 26%
    12:00 +23°C° 0 mm 2 mps 637 mmHg 23%
    13:00 +24°C° 0 mm 3 mps 636 mmHg 21%
    14:00 +24°C° 0 mm 3 mps 636 mmHg 19%
    15:00 +25°C° 0 mm 4 mps 635 mmHg 18%
    16:00 +24°C° 0 mm 3 mps 635 mmHg 19%
    17:00 +22°C° 0 mm 3 mps 635 mmHg 20%
    18:00 +20°C° 0 mm 3 mps 635 mmHg 20%
    19:00 +19°C° 0 mm 3 mps 635 mmHg 21%
    20:00 +18°C° 0 mm 2 mps 635 mmHg 22%
    21:00 +18°C° 0 mm 1 mps 635 mmHg 24%
    22:00 +16°C° 0 mm 1 mps 634 mmHg 24%
    23:00 +15°C° 0 mm 1 mps 634 mmHg 25%

    22 December, Saturday

    Time Temperature Precipitation Wind Pressure Humidity
    00:00 +14°C° 0 mm 1 mps 633 mmHg 26%
    01:00 +14°C° 0 mm 1 mps 633 mmHg 27%
    02:00 +13°C° 0 mm 1 mps 632 mmHg 28%
    03:00 +11°C° 0 mm 0 mps 632 mmHg 29%
    04:00 +11°C° 0 mm 0 mps 632 mmHg 31%
    05:00 +10°C° 0 mm 0 mps 632 mmHg 32%
    06:00 +10°C° 0 mm 0 mps 632 mmHg 34%
    07:00 +13°C° 0 mm 1 mps 633 mmHg 32%
    08:00 +15°C° 0 mm 1 mps 635 mmHg 29%
    09:00 +18°C° 0 mm 1 mps 636 mmHg 27%
    10:00 +18°C° 0 mm 2 mps 636 mmHg 25%
    11:00 +20°C° 0 mm 3 mps 636 mmHg 23%
    12:00 +21°C° 0 mm 3 mps 636 mmHg 20%
    13:00 +22°C° 0 mm 4 mps 635 mmHg 20%
    14:00 +22°C° 0 mm 4 mps 635 mmHg 19%
    15:00 +23°C° 0 mm 4 mps 634 mmHg 19%
    16:00 +22°C° 0 mm 4 mps 634 mmHg 22%
    17:00 +21°C° 0 mm 4 mps 634 mmHg 25%
    18:00 +20°C° 0 mm 4 mps 634 mmHg 28%
    19:00 +19°C° 0 mm 4 mps 635 mmHg 31%
    20:00 +17°C° 0 mm 3 mps 635 mmHg 35%
    21:00 +16°C° 0 mm 2 mps 635 mmHg 39%
    22:00 +16°C° 0 mm 2 mps 635 mmHg 41%
    23:00 +15°C° 0 mm 1 mps 634 mmHg 44%

    23 December, Sunday

    Time Temperature Precipitation Wind Pressure Humidity
    00:00 +14°C° 0 mm 1 mps 634 mmHg 46%
    01:00 +14°C° 0 mm 1 mps 634 mmHg 48%
    02:00 +13°C° 0 mm 1 mps 633 mmHg 49%
    03:00 +12°C° 0 mm 1 mps 633 mmHg 51%
    04:00 +12°C° 0 mm 1 mps 633 mmHg 52%
    05:00 +11°C° 0 mm 1 mps 633 mmHg 53%
    06:00 +11°C° 0 mm 1 mps 633 mmHg 55%
    07:00 +12°C° 0 mm 1 mps 634 mmHg 50%
    08:00 +13°C° 0 mm 1 mps 635 mmHg 46%
    09:00 +15°C° 0 mm 2 mps 636 mmHg 42%
    10:00 +16°C° 0 mm 2 mps 636 mmHg 37%
    11:00 +18°C° 0 mm 2 mps 636 mmHg 33%
    12:00 +20°C° 0 mm 3 mps 636 mmHg 28%
    13:00 +21°C° 0 mm 3 mps 636 mmHg 26%
    14:00 +22°C° 0 mm 3 mps 636 mmHg 24%
    15:00 +22°C° 0 mm 4 mps 635 mmHg 22%
    16:00 +21°C° 0 mm 4 mps 635 mmHg 25%
    17:00 +20°C° 0 mm 4 mps 635 mmHg 28%
    18:00 +19°C° 0 mm 4 mps 635 mmHg 30%
    19:00 +18°C° 0 mm 4 mps 635 mmHg 34%
    20:00 +17°C° 0 mm 3 mps 635 mmHg 37%
    21:00 +16°C° 0 mm 2 mps 636 mmHg 41%
    22:00 +15°C° 0 mm 2 mps 635 mmHg 44%
    23:00 +14°C° 0 mm 2 mps 635 mmHg 46%

    24 December, Monday

    Time Temperature Precipitation Wind Pressure Humidity
    00:00 +13°C° 0 mm 1 mps 635 mmHg 49%
    01:00 +13°C° 0 mm 1 mps 634 mmHg 51%
    02:00 +12°C° 0 mm 1 mps 634 mmHg 53%
    03:00 +11°C° 0 mm 1 mps 634 mmHg 55%
    04:00 +11°C° 0 mm 1 mps 634 mmHg 57%
    05:00 +10°C° 0 mm 1 mps 634 mmHg 59%
    06:00 +9°C° 0 mm 0 mps 634 mmHg 61%
    07:00 +11°C° 0 mm 1 mps 634 mmHg 55%
    08:00 +13°C° 0 mm 1 mps 635 mmHg 49%
    09:00 +14°C° 0 mm 1 mps 636 mmHg 44%
    10:00 +16°C° 0 mm 2 mps 636 mmHg 38%
    11:00 +18°C° 0 mm 2 mps 636 mmHg 33%
    12:00 +20°C° 0 mm 3 mps 636 mmHg 27%
    13:00 +21°C° 0 mm 3 mps 636 mmHg 25%
    14:00 +21°C° 0 mm 4 mps 636 mmHg 24%
    15:00 +22°C° 0 mm 4 mps 635 mmHg 22%
    16:00 +21°C° 0 mm 4 mps 635 mmHg 24%
    17:00 +20°C° 0 mm 4 mps 635 mmHg 26%
    18:00 +19°C° 0 mm 4 mps 635 mmHg 28%
    19:00 +17°C° 0 mm 3 mps 635 mmHg 31%
    20:00 +16°C° 0 mm 3 mps 635 mmHg 33%
    21:00 +15°C° 0 mm 2 mps 635 mmHg 35%
    22:00 +15°C° 0 mm 2 mps 635 mmHg 37%
    23:00 +14°C° 0 mm 1 mps 635 mmHg 39%
    Show more